[[{"header":{"parameterUnit":"m.s-1","parameterCategory":1,"la1":30.2991,"la2":30.254,"lo1":-89.0895,"lo2":-89.0444,"dy":0.0017,"dx":0.0017,"nx":28,"ny":28,"refTime":"2024-07-08T09:00:00:Z","depth":0,"parameterNumber":2,"parameterNumberName":"U-component_of_WINDS"},"data":[0,0,0,0,0,0,0,0,0,0,0,0,0,0,0,0,0,0,0,0,0,0,0,0,0,0,0,0,0,0,0,0,0,0,0,0,0,0,0,0,0,0,0,0,0,0,0,0,0,0,0,0,0,0,0,0,0,0,-2.9644,-2.9643,0,-2.9619,-2.9619,-2.9618,-2.9544,-2.9543,-2.9541,-2.954,-2.9516,-2.9517,-2.9518,0,0,0,0,0,0,0,0,0,0,0,0,0,-2.9628,-2.9629,-2.9644,-2.9643,-2.9643,-2.9619,-2.9619,-2.9618,-2.9545,-2.9543,-2.9541,-2.9539,-2.9516,-2.9517,-2.9518,0,0,0,0,0,0,0,0,0,0,0,0,0,-2.9622,-2.9629,-2.9644,-2.9603,-2.9599,-2.9619,-2.9619,-2.9618,-2.9545,-2.9543,-2.954,-2.9538,-2.9516,-2.9517,-2.9518,-2.9575,0,0,-2.9522,-2.9523,0,0,0,0,0,0,0,0,-2.9623,-2.9623,-2.9609,-2.9606,-2.9602,-2.9582,-2.9604,-2.9604,-2.9546,-2.9566,-2.954,-2.9537,-2.954,-2.9539,-2.954,-2.9574,-2.9573,-2.9522,-2.9523,-2.9524,-2.9524,0,0,0,0,0,0,0,-2.9623,-2.9624,-2.9634,-2.9609,-2.9605,-2.9587,-2.9583,-2.9604,-2.9567,-2.9564,-2.9558,-2.9556,-2.9538,-2.9539,-2.9539,-2.9573,-2.9522,-2.9524,-2.9524,-2.9525,-2.9652,-2.9655,0,0,0,0,0,0,-2.9629,-2.9624,-2.9635,-2.9633,-2.9606,-2.9589,-2.9585,-2.9591,-2.9567,-2.9561,-2.9559,-2.9553,-2.9538,-2.9538,-2.9538,-2.9603,-2.9524,-2.9525,-2.9526,-2.965,-2.9653,-2.9656,0,0,0,0,0,0,-2.9629,-2.9631,-2.9636,-2.9627,-2.9626,-2.9592,-2.9599,-2.9592,-2.9593,-2.9563,-2.9556,-2.9567,-2.9536,-2.9536,-2.9566,-2.9601,-2.9526,-2.9527,-2.9647,-2.9651,-2.9654,-2.9734,0,0,0,0,0,0,-2.9629,-2.9631,-2.9652,-2.9628,-2.9627,-2.9664,-2.9601,-2.9593,-2.9595,-2.9588,-2.9568,-2.9563,-2.9534,-2.9565,-2.9568,-2.9602,-2.9528,-2.9643,-2.9649,-2.9653,-2.9728,-2.974,-2.975,0,0,0,0,0,-2.9629,-2.9676,-2.9654,-2.9655,-2.9653,-2.9666,-2.9666,-2.9631,-2.9599,-2.962,-2.96,-2.9564,-2.9597,-2.9569,-2.9571,-2.9606,-2.9641,-2.9647,-2.9653,-2.9723,-2.9737,-2.975,0,0,0,0,0,0,-2.9706,-2.9672,-2.9647,-2.9688,-2.9681,-2.9654,-2.9679,-2.9648,-2.965,-2.9643,-2.9601,-2.9597,-2.9633,-2.9623,-2.9592,-2.966,-2.9613,-2.962,-2.9665,-2.9679,-2.969,-2.9691,-2.9529,0,0,0,0,0,-2.9728,-2.9741,-2.9711,-2.975,-2.9748,-2.9715,-2.9719,-2.9693,-2.9684,-2.968,-2.9663,-2.9656,-2.9664,-2.9671,-2.9678,-2.9726,-2.9721,-2.9751,-2.9762,-2.9772,-2.9778,-2.9802,-2.9815,-2.9675,-2.9675,-2.9675,0,0,-2.9773,-2.9756,-2.9767,-2.9765,-2.9756,-2.9771,-2.9712,-2.9731,-2.9742,-2.9683,-2.971,-2.9698,-2.9687,-2.9726,-2.9743,-2.9719,-2.9815,-2.9779,-2.9787,-2.9788,-2.9809,-2.9823,-2.9835,-2.9679,-2.9678,-2.9677,0,0,-2.9863,-2.9852,-2.9883,-2.9875,-2.9862,-2.9839,-2.9847,-2.9825,-2.9814,-2.984,-2.9797,-2.9809,-2.9825,-2.9819,-2.9818,-2.9906,-2.9872,-2.9909,-2.9967,-2.9991,-3.0002,-3.0012,-3.0042,-3.0054,-2.9915,-2.9915,-2.9916,0,-2.9921,-2.9941,-2.9903,-2.9924,-2.9924,-2.9871,-2.9903,-2.9897,-2.9887,-2.9889,-2.9862,-2.988,-2.987,-2.9907,-2.9928,-2.9929,-2.9936,-2.9911,-3.0003,-3.0013,-3.0021,-3.005,-3.0062,-2.992,-2.9919,-2.9919,-2.9919,0,-3.0013,-3.0028,-3.0054,-3.0045,-3.0049,-3.0075,-3.0041,-3.0049,-3.0023,-3.0003,-3.0031,-3.0016,-3.0018,-3.0025,-3.0,-3.0059,-3.0044,-3.0011,-2.9963,-3.004,-3.0066,-3.0077,-2.9926,-2.9925,-2.9923,-2.9922,0,0,-3.0151,-3.012,-3.013,-3.0125,-3.0107,-3.0118,-3.0142,-3.0143,-3.0151,-3.0146,-3.0164,-3.0179,-3.0148,-3.0147,-3.0121,-3.0142,-3.0212,-3.0107,-3.0106,-3.0126,-3.0275,-3.03,-3.0313,-3.019,-3.0192,-3.0193,-3.0276,0,-3.0236,-3.0274,-3.024,-3.0284,-3.0297,-3.0248,-3.0268,-3.0259,-3.0242,-3.0251,-3.0232,-3.0242,-3.0201,-3.02,-3.0219,-3.02,-3.0241,-3.0193,-3.0207,-3.0208,-3.0211,-3.0327,-3.0353,-3.0432,-3.0286,-3.0288,-3.0289,0,-3.0339,-3.0338,-3.0384,-3.0362,-3.0366,-3.0386,-3.0384,-3.0393,-3.0382,-3.0368,-3.0366,-3.0334,-3.0356,-3.031,-3.0339,-3.0307,-3.0311,-3.0302,-3.0305,-3.0304,-3.0253,-3.0329,-3.0456,-3.0468,-3.0305,-3.0303,-3.0302,0,-3.0435,-3.0445,-3.0473,-3.0471,-3.0446,-3.046,-3.0451,-3.0437,-3.044,-3.0439,-3.044,-3.0442,-3.0443,-3.0446,-3.0415,-3.0384,-3.0448,-3.0399,-3.0437,-3.0438,-3.0453,-3.0452,-3.0581,-3.0456,-3.0456,-3.0456,-3.0456,0,-3.0533,-3.0563,-3.0516,-3.0533,-3.0565,-3.0526,-3.0559,-3.0545,-3.0533,-3.0547,-3.0504,-3.0519,-3.0477,-3.0487,-3.0463,-3.0491,-3.0492,-3.0481,-3.0475,-3.0485,-3.0486,-3.0486,-3.048,-3.0459,-3.0458,-3.0458,-3.0457,0,-3.0645,-3.0615,-3.0642,-3.0616,-3.061,-3.0635,-3.0613,-3.0628,-3.0608,-3.0626,-3.0628,-3.0596,-3.0606,-3.0575,-3.058,-3.0564,-3.0605,-3.0589,-3.0608,-3.0603,-3.0643,-3.0639,-3.0776,-3.0792,-3.0658,-3.0659,-3.066,0,-3.0709,-3.0731,-3.0707,-3.0713,-3.0705,-3.0716,-3.0718,-3.068,-3.0685,-3.0673,-3.069,-3.0696,-3.0698,-3.0716,-3.0694,-3.0697,-3.0681,-3.0729,-3.0681,-3.0691,-3.0681,-3.068,-3.0682,-3.0739,-3.074,-3.0742,-3.0743,0,-3.0826,-3.081,-3.0815,-3.0814,-3.0818,-3.0816,-3.0811,-3.0819,-3.0778,-3.0785,-3.0794,-3.0796,-3.08,-3.0807,-3.0805,-3.0796,-3.0763,-3.0758,-3.0766,-3.0777,-3.0787,-3.0782,-3.0635,-3.0755,-3.0753,-3.0753,-3.0752,-3.0751,-3.0916,-3.0933,-3.0918,-3.0925,-3.0917,-3.0913,-3.0926,-3.0907,-3.0913,-3.0913,-3.0891,-3.0904,-3.0892,-3.0886,-3.088,-3.089,-3.0868,-3.0881,-3.0884,-3.0888,-3.0894,-3.0786,-3.089,-3.0889,-3.0889,-3.0889,-3.0888,0,-3.1031,-3.1019,-3.1025,-3.1019,-3.1024,-3.0992,-3.0985,-3.0991,-3.1003,-3.0995,-3.0998,-3.1008,-3.1013,-3.0991,-3.0994,-3.1006,-3.0991,-3.1008,-3.1007,-3.1005,-3.0914,-3.0906,-3.102,-3.102,-3.102,-3.102,-3.102,-3.102,-3.1091,-3.1117,-3.1099,-3.1121,-3.1109,-3.1121,-3.112,-3.1116,-3.1109,-3.1121,-3.1126,-3.1111,-3.1097,-3.1098,-3.1102,-3.1095,-3.1098,-3.112,-3.1108,-3.1024,-3.1011,-3.0999,-3.0991,-3.1121,-3.1121,-3.1198,-3.1198,-3.1199]},{"header":{"parameterUnit":"m.s-1","parameterCategory":1,"la1":30.2991,"la2":30.254,"lo1":-89.0895,"lo2":-89.0444,"dy":0.0017,"dx":0.0017,"nx":28,"ny":28,"refTime":"2024-07-08T09:00:00:Z","depth":0,"parameterNumber":3,"parameterNumberName":"V-component_of_WINDS"},"data":[0,0,0,0,0,0,0,0,0,0,0,0,0,0,0,0,0,0,0,0,0,0,0,0,0,0,0,0,0,0,0,0,0,0,0,0,0,0,0,0,0,0,0,0,0,0,0,0,0,0,0,0,0,0,0,0,0,0,4.9308,4.9308,0,4.9291,4.9291,4.929,4.919,4.9187,4.9185,4.9182,4.9167,4.9168,4.917,0,0,0,0,0,0,0,0,0,0,0,0,0,4.9254,4.9255,4.9308,4.9307,4.9307,4.9291,4.9291,4.929,4.919,4.9187,4.9184,4.9181,4.9166,4.9168,4.917,0,0,0,0,0,0,0,0,0,0,0,0,0,4.9261,4.9256,4.9308,4.9255,4.925,4.9291,4.9291,4.929,4.9191,4.9187,4.9183,4.918,4.9165,4.9168,4.9171,4.9261,0,0,4.9179,4.918,0,0,0,0,0,0,0,0,4.9261,4.9263,4.9263,4.9259,4.9253,4.9238,4.9266,4.9281,4.9192,4.9213,4.9182,4.9178,4.9194,4.9194,4.9199,4.926,4.926,4.918,4.9181,4.9182,4.9183,0,0,0,0,0,0,0,4.926,4.9263,4.9301,4.9263,4.9257,4.9233,4.923,4.9268,4.9224,4.9211,4.9204,4.9203,4.919,4.9196,4.9198,4.9259,4.9179,4.9182,4.9184,4.9185,4.9393,4.9396,0,0,0,0,0,0,4.9267,4.9264,4.9302,4.93,4.9248,4.9237,4.9233,4.9247,4.9224,4.9216,4.9206,4.9198,4.9193,4.9195,4.9197,4.9299,4.9182,4.9185,4.9187,4.9389,4.9394,4.9398,0,0,0,0,0,0,4.9266,4.9272,4.9302,4.928,4.9282,4.9241,4.9258,4.9249,4.9254,4.922,4.9212,4.922,4.9191,4.9193,4.9245,4.9297,4.9186,4.9189,4.9384,4.939,4.9396,4.9506,0,0,0,0,0,0,4.9265,4.9272,4.9306,4.9282,4.9284,4.9351,4.9261,4.9251,4.9259,4.9249,4.9231,4.9224,4.9188,4.9242,4.9248,4.9299,4.9191,4.9379,4.9387,4.9394,4.9497,4.9515,4.953,0,0,0,0,0,4.9264,4.9338,4.9308,4.9313,4.9325,4.9354,4.9356,4.9312,4.9264,4.9297,4.9275,4.9225,4.9291,4.9248,4.9254,4.9307,4.9376,4.9385,4.9393,4.949,4.9511,4.9529,0,0,0,0,0,0,4.937,4.9334,4.93,4.9369,4.9365,4.9337,4.9378,4.9336,4.9346,4.9336,4.9282,4.9278,4.9339,4.9328,4.9281,4.9392,4.9325,4.9335,4.9396,4.9416,4.9432,4.9432,4.9193,0,0,0,0,0,4.9401,4.9428,4.9395,4.9459,4.9459,4.9419,4.9431,4.9397,4.9391,4.9389,4.9371,4.9368,4.9387,4.9402,4.9418,4.9496,4.949,4.9536,4.9552,4.9565,4.9574,4.9613,4.9632,4.9426,4.9426,4.9426,0,0,4.9467,4.945,4.947,4.948,4.9473,4.9502,4.9419,4.9453,4.9473,4.9395,4.9442,4.9429,4.9422,4.9487,4.9515,4.948,4.963,4.9576,4.9587,4.9588,4.9624,4.9643,4.9661,4.9432,4.9431,4.943,0,0,4.9599,4.9591,4.9641,4.9636,4.9627,4.96,4.9612,4.9591,4.9578,4.9625,4.9566,4.9591,4.9627,4.9623,4.9626,4.9758,4.9711,4.9765,4.9848,4.9887,4.9903,4.9917,4.9962,4.9979,4.9774,4.9775,4.9775,0,4.9681,4.9721,4.9673,4.971,4.9716,4.9646,4.9697,4.9695,4.9692,4.9697,4.9659,4.9701,4.9691,4.9754,4.9786,4.9792,4.9803,4.9765,4.9904,4.9918,4.993,4.9973,4.999,4.9781,4.978,4.978,4.9779,0,4.9822,4.9851,4.9893,4.9891,4.9901,4.9946,4.9904,4.9921,4.9887,4.9864,4.9912,4.9898,4.991,4.9923,4.9891,4.9981,4.9959,4.9914,4.9844,4.9957,4.9996,5.0012,4.979,4.9788,4.9786,4.9784,0,0,5.002,4.999,5.0006,5.0003,4.9988,5.0009,5.005,5.0061,5.0075,5.0076,5.0108,5.014,5.0097,5.0101,5.0068,5.0102,5.0205,5.0052,5.005,5.0079,5.0302,5.0335,5.0354,5.0175,5.0178,5.018,5.0301,0,5.0145,5.0212,5.017,5.0244,5.0269,5.0203,5.0238,5.0233,5.0213,5.0232,5.021,5.0232,5.0175,5.0177,5.0208,5.0186,5.0248,5.0177,5.0204,5.0205,5.0205,5.0375,5.041,5.0525,5.0317,5.0319,5.0321,0,5.03,5.0306,5.0382,5.036,5.0369,5.0401,5.0407,5.0426,5.0419,5.0402,5.0406,5.0364,5.0402,5.0336,5.0388,5.034,5.0349,5.034,5.0343,5.0342,5.0268,5.0376,5.0561,5.0577,5.0345,5.0343,5.0341,0,5.0434,5.0461,5.051,5.051,5.0486,5.051,5.0502,5.049,5.0499,5.0505,5.0509,5.052,5.0526,5.0535,5.0497,5.0453,5.0554,5.0485,5.054,5.0541,5.0562,5.0561,5.0749,5.0572,5.0572,5.0572,5.0572,0,5.0577,5.0626,5.0569,5.0599,5.0651,5.0602,5.0656,5.064,5.0631,5.0656,5.0601,5.0626,5.0575,5.0596,5.0567,5.0613,5.0617,5.0604,5.0595,5.0607,5.0609,5.0611,5.0601,5.0576,5.0575,5.0574,5.0574,0,5.0735,5.0699,5.0747,5.072,5.0715,5.0754,5.0732,5.0758,5.0734,5.0767,5.0772,5.0735,5.0756,5.072,5.0737,5.0717,5.0781,5.0761,5.0783,5.0777,5.0833,5.0828,5.1027,5.105,5.0861,5.0863,5.0865,0,5.0827,5.0863,5.084,5.0852,5.0846,5.0868,5.0876,5.083,5.084,5.0834,5.0861,5.0877,5.0887,5.0924,5.0899,5.0911,5.089,5.0959,5.0891,5.0902,5.0888,5.0886,5.0888,5.0972,5.0974,5.0976,5.0978,0,5.0995,5.0975,5.0988,5.0996,5.1007,5.1011,5.101,5.1024,5.0975,5.099,5.101,5.1018,5.1034,5.1051,5.1057,5.1048,5.1005,5.0999,5.1012,5.1024,5.1035,5.1028,5.0819,5.0994,5.0993,5.0991,5.0991,5.099,5.1121,5.1149,5.1136,5.1153,5.1147,5.1148,5.1171,5.115,5.1165,5.1174,5.1147,5.1173,5.1164,5.1167,5.1164,5.1184,5.1153,5.1173,5.1177,5.1182,5.119,5.1033,5.1185,5.1184,5.1184,5.1184,5.1183,0,5.1284,5.1272,5.1288,5.1288,5.1301,5.1259,5.1257,5.127,5.1294,5.1288,5.1299,5.1322,5.1337,5.1314,5.1325,5.1346,5.1326,5.135,5.1347,5.1345,5.1218,5.1204,5.1366,5.1366,5.1366,5.1366,5.1366,5.1365,5.1369,5.1413,5.1392,5.1433,5.1421,5.1445,5.1447,5.1448,5.1443,5.147,5.1482,5.1467,5.1454,5.1464,5.1476,5.1469,5.1475,5.1506,5.1492,5.1373,5.1355,5.1338,5.1324,5.1508,5.1508,5.1617,5.1618,5.1619]}]]